AAL1252 KATL-KCLT

Flight info

Callsign AAL1252
Flight time 0h 45m
Altitude 27000
Route PHIIL3 PHIIL CNTLR JONZE5
Aircraft B738/M-VGDW/C

Departure

Time 2026-05-06 17:24
Airport Hartsfield Jackson Atlanta International Airport (KATL)

Arrival

Time 2026-05-06 18:10
Airport Charlotte Douglas International Airport (KCLT)
Time Latitude Longitude Altitude Speed Heading
2026-05-06 16:53 33.64020 -84.42328 991 ft 0 kts
2026-05-06 17:14 33.64015 -84.42328 991 ft 2 kts
2026-05-06 17:14 33.64000 -84.42329 991 ft 2 kts
2026-05-06 17:14 33.63985 -84.42329 991 ft 2 kts
2026-05-06 17:14 33.63970 -84.42329 991 ft 2 kts
2026-05-06 17:15 33.63955 -84.42329 991 ft 2 kts
2026-05-06 17:15 33.63940 -84.42333 991 ft 2 kts 42°
2026-05-06 17:15 33.63932 -84.42348 991 ft 2 kts 78°
2026-05-06 17:15 33.63932 -84.42357 992 ft 1 kts 98°
2026-05-06 17:16 33.63932 -84.42363 992 ft 0 kts 94°
2026-05-06 17:19 33.63931 -84.42327 991 ft 5 kts 91°
2026-05-06 17:19 33.63921 -84.42271 988 ft 7 kts 128°
2026-05-06 17:19 33.63873 -84.42243 987 ft 7 kts 166°
2026-05-06 17:20 33.63822 -84.42233 987 ft 7 kts 176°
2026-05-06 17:20 33.63771 -84.42230 987 ft 10 kts 180°
2026-05-06 17:20 33.63695 -84.42232 987 ft 12 kts 182°
2026-05-06 17:20 33.63594 -84.42197 987 ft 17 kts 114°
2026-05-06 17:21 33.63582 -84.42009 980 ft 30 kts 91°
2026-05-06 17:21 33.63582 -84.41707 966 ft 40 kts 91°
2026-05-06 17:21 33.63582 -84.41396 962 ft 30 kts 90°
2026-05-06 17:21 33.63581 -84.41167 962 ft 11 kts 86°
2026-05-06 17:22 33.63585 -84.41075 961 ft 11 kts 88°
2026-05-06 17:22 33.63585 -84.40978 958 ft 12 kts 91°
2026-05-06 17:22 33.63578 -84.40935 957 ft 0 kts 123°
2026-05-06 17:22 33.63569 -84.40923 956 ft 12 kts 135°
2026-05-06 17:23 33.63468 -84.40977 958 ft 19 kts 269°
2026-05-06 17:23 33.63472 -84.41248 962 ft 62 kts 270°
2026-05-06 17:23 33.63470 -84.42034 983 ft 123 kts 269°
2026-05-06 17:23 33.63474 -84.43253 1067 ft 166 kts 270°
2026-05-06 17:24 33.63498 -84.44759 1392 ft 194 kts 265°
2026-05-06 17:24 33.63429 -84.46555 1596 ft 233 kts 263°
2026-05-06 17:24 33.63106 -84.48583 1872 ft 266 kts 249°
2026-05-06 17:24 33.62295 -84.50611 2747 ft 274 kts 241°
2026-05-06 17:25 33.61362 -84.52535 3864 ft 265 kts 240°
2026-05-06 17:25 33.60478 -84.54391 4901 ft 258 kts 241°
2026-05-06 17:25 33.59588 -84.56198 5875 ft 253 kts 238°
2026-05-06 17:25 33.58393 -84.57748 6557 ft 262 kts 216°
2026-05-06 17:26 33.56693 -84.58558 7343 ft 271 kts 194°
2026-05-06 17:26 33.54787 -84.58615 8152 ft 276 kts 183°
2026-05-06 17:26 33.52882 -84.58475 8819 ft 280 kts 184°
2026-05-06 17:26 33.50931 -84.58168 9523 ft 289 kts 172°
2026-05-06 17:27 33.49092 -84.57022 10164 ft 310 kts 146°
2026-05-06 17:27 33.47737 -84.54894 10486 ft 339 kts 118°
2026-05-06 17:27 33.47219 -84.52068 10714 ft 365 kts 90°
2026-05-06 17:27 33.47661 -84.49027 10991 ft 380 kts 73°
2026-05-06 17:28 33.48515 -84.45969 11246 ft 394 kts 70°
2026-05-06 17:28 33.49398 -84.42806 11593 ft 405 kts 72°
2026-05-06 17:28 33.50187 -84.39552 12095 ft 410 kts 75°
2026-05-06 17:28 33.50877 -84.36272 12771 ft 410 kts 76°
2026-05-06 17:29 33.51535 -84.32939 13268 ft 415 kts 76°
2026-05-06 17:29 33.52197 -84.29537 13704 ft 421 kts 76°
2026-05-06 17:29 33.52872 -84.26124 14191 ft 425 kts 76°
2026-05-06 17:29 33.53577 -84.22658 14704 ft 428 kts 75°
2026-05-06 17:30 33.54308 -84.19212 15116 ft 435 kts 74°
2026-05-06 17:30 33.55083 -84.15698 15665 ft 435 kts 74°
2026-05-06 17:30 33.55853 -84.12199 16069 ft 441 kts 74°
2026-05-06 17:30 33.56627 -84.08607 16513 ft 445 kts 75°
2026-05-06 17:31 33.57368 -84.05048 16981 ft 448 kts 75°
2026-05-06 17:31 33.58112 -84.01387 17419 ft 452 kts 75°
2026-05-06 17:31 33.58860 -83.97710 17816 ft 457 kts 74°
2026-05-06 17:31 33.59619 -83.94012 18136 ft 463 kts 74°
2026-05-06 17:32 33.60387 -83.90263 18630 ft 464 kts 74°
2026-05-06 17:32 33.61159 -83.86494 19086 ft 466 kts 73°
2026-05-06 17:32 33.61925 -83.82740 19460 ft 469 kts 73°
2026-05-06 17:32 33.62690 -83.78976 19920 ft 470 kts 73°
2026-05-06 17:33 33.63467 -83.75145 20320 ft 473 kts 73°
2026-05-06 17:33 33.64244 -83.71309 20737 ft 475 kts 73°
2026-05-06 17:33 33.65026 -83.67448 21118 ft 477 kts 73°
2026-05-06 17:33 33.65812 -83.63599 21446 ft 481 kts 73°
2026-05-06 17:34 33.66614 -83.59689 21821 ft 482 kts 71°
2026-05-06 17:34 33.67579 -83.55876 22154 ft 482 kts 64°
2026-05-06 17:34 33.68979 -83.52218 22463 ft 479 kts 56°
2026-05-06 17:34 33.70691 -83.48799 22970 ft 473 kts 50°
2026-05-06 17:35 33.72492 -83.45542 23332 ft 473 kts 49°
2026-05-06 17:35 33.74347 -83.42225 23582 ft 478 kts 50°
2026-05-06 17:35 33.76147 -83.38911 23964 ft 479 kts 51°
2026-05-06 17:36 33.79694 -83.32112 24534 ft 485 kts 53°
2026-05-06 17:36 33.81442 -83.28641 24688 ft 490 kts 53°
2026-05-06 17:36 33.83200 -83.25087 25083 ft 489 kts 54°
2026-05-06 17:36 33.84910 -83.21614 25466 ft 488 kts 54°
2026-05-06 17:37 33.86675 -83.18114 25647 ft 492 kts 53°
2026-05-06 17:37 33.88472 -83.14619 25969 ft 491 kts 52°
2026-05-06 17:37 33.90295 -83.11132 26271 ft 492 kts 52°
2026-05-06 17:37 33.92134 -83.07632 26556 ft 492 kts 52°
2026-05-06 17:38 33.93979 -83.04176 26810 ft 493 kts 51°
2026-05-06 17:38 33.95818 -83.00743 26993 ft 492 kts 52°
2026-05-06 17:38 33.97686 -82.97262 27009 ft 493 kts 52°
2026-05-06 17:38 33.99553 -82.93806 27008 ft 493 kts 52°
2026-05-06 17:39 34.01418 -82.90377 27018 ft 494 kts 51°
2026-05-06 17:39 34.03300 -82.86913 27012 ft 496 kts 51°
2026-05-06 17:39 34.05201 -82.83429 27009 ft 497 kts 51°
2026-05-06 17:39 34.07108 -82.79924 27015 ft 498 kts 52°
2026-05-06 17:40 34.08995 -82.76433 27014 ft 499 kts 52°
2026-05-06 17:40 34.10867 -82.72943 27016 ft 500 kts 52°
2026-05-06 17:40 34.12768 -82.69391 27009 ft 501 kts 51°
2026-05-06 17:40 34.14661 -82.65852 27012 ft 502 kts 52°
2026-05-06 17:41 34.16544 -82.62331 27011 ft 503 kts 52°
2026-05-06 17:41 34.18465 -82.58770 27008 ft 504 kts 51°
2026-05-06 17:41 34.20377 -82.55243 27005 ft 505 kts 51°
2026-05-06 17:41 34.22288 -82.51698 27004 ft 506 kts 52°
2026-05-06 17:42 34.24206 -82.48127 27005 ft 507 kts 52°
2026-05-06 17:42 34.26123 -82.44549 26938 ft 510 kts 52°
2026-05-06 17:42 34.28033 -82.40928 26647 ft 518 kts 53°
2026-05-06 17:42 34.29981 -82.37235 26356 ft 523 kts 52°
2026-05-06 17:43 34.31910 -82.33572 26092 ft 507 kts 53°
2026-05-06 17:43 34.33782 -82.30016 25840 ft 485 kts 53°
2026-05-06 17:43 34.35566 -82.26646 25590 ft 471 kts 52°
2026-05-06 17:43 34.37341 -82.23329 25339 ft 469 kts 52°
2026-05-06 17:44 34.39112 -82.20032 25105 ft 471 kts 52°
2026-05-06 17:44 34.40892 -82.16695 24861 ft 476 kts 53°
2026-05-06 17:44 34.42681 -82.13322 24606 ft 476 kts 53°
2026-05-06 17:44 34.44451 -82.09978 24346 ft 471 kts 52°
2026-05-06 17:45 34.46220 -82.06655 24092 ft 469 kts 52°
2026-05-06 17:45 34.47994 -82.03324 23839 ft 467 kts 52°
2026-05-06 17:45 34.49749 -82.00020 23585 ft 465 kts 53°
2026-05-06 17:45 34.51468 -81.96780 23342 ft 460 kts 53°
2026-05-06 17:46 34.53181 -81.93523 23079 ft 449 kts 52°
2026-05-06 17:46 34.54836 -81.90369 22828 ft 438 kts 53°
2026-05-06 17:46 34.56435 -81.87311 22588 ft 428 kts 52°
2026-05-06 17:46 34.58024 -81.84280 22328 ft 419 kts 52°
2026-05-06 17:47 34.59584 -81.81317 21913 ft 415 kts 52°
2026-05-06 17:47 34.61140 -81.78375 21374 ft 415 kts 52°
2026-05-06 17:47 34.62701 -81.75434 20826 ft 415 kts 51°
2026-05-06 17:47 34.64233 -81.72538 20507 ft 408 kts 51°
2026-05-06 17:48 34.65736 -81.69682 20388 ft 395 kts 52°
2026-05-06 17:48 34.67183 -81.66918 20261 ft 385 kts 51°
2026-05-06 17:48 34.68634 -81.64146 20126 ft 392 kts 51°
2026-05-06 17:48 34.70115 -81.61324 19980 ft 406 kts 51°
2026-05-06 17:49 34.71656 -81.58396 19816 ft 414 kts 52°
2026-05-06 17:49 34.73186 -81.55452 19630 ft 408 kts 52°
2026-05-06 17:49 34.74721 -81.52603 19454 ft 393 kts 47°
2026-05-06 17:49 34.76381 -81.50060 19248 ft 379 kts 41°
2026-05-06 17:50 34.78149 -81.47730 18728 ft 378 kts 37°
2026-05-06 17:50 34.80004 -81.45444 18128 ft 380 kts 37°
2026-05-06 17:50 34.81836 -81.43190 17618 ft 375 kts 37°
2026-05-06 17:50 34.83651 -81.40910 17086 ft 371 kts 38°
2026-05-06 17:51 34.85410 -81.38644 16606 ft 366 kts 39°
2026-05-06 17:51 34.87124 -81.36397 16126 ft 361 kts 39°
2026-05-06 17:51 34.88807 -81.34182 15656 ft 355 kts 39°
2026-05-06 17:51 34.90486 -81.31994 15190 ft 349 kts 38°
2026-05-06 17:52 34.92140 -81.29862 14751 ft 344 kts 38°
2026-05-06 17:52 34.93770 -81.27778 14292 ft 339 kts 38°
2026-05-06 17:52 34.95415 -81.25673 13878 ft 345 kts 38°
2026-05-06 17:52 34.97129 -81.23506 13386 ft 360 kts 38°
2026-05-06 17:53 34.98871 -81.21311 12916 ft 361 kts 38°
2026-05-06 17:53 35.00588 -81.19136 12452 ft 361 kts 39°
2026-05-06 17:53 35.02329 -81.16911 11970 ft 361 kts 39°
2026-05-06 17:53 35.04047 -81.14687 11473 ft 360 kts 40°
2026-05-06 17:54 35.05747 -81.12447 11030 ft 358 kts 41°
2026-05-06 17:54 35.07394 -81.10235 10721 ft 351 kts 41°
2026-05-06 17:54 35.09070 -81.08092 10245 ft 346 kts 34°
2026-05-06 17:54 35.11026 -81.06564 10070 ft 319 kts 12°
2026-05-06 17:55 35.13079 -81.06049 9995 ft 283 kts 351°
2026-05-06 17:55 35.14946 -81.06197 9905 ft 259 kts 344°
2026-05-06 17:55 35.16693 -81.06422 9733 ft 247 kts 345°
2026-05-06 17:55 35.18414 -81.06583 9414 ft 242 kts 347°
2026-05-06 17:56 35.20067 -81.06702 9128 ft 235 kts 346°
2026-05-06 17:56 35.21684 -81.06834 8814 ft 233 kts 346°
2026-05-06 17:56 35.23282 -81.06975 8541 ft 231 kts 346°
2026-05-06 17:56 35.24894 -81.07130 8165 ft 233 kts 346°
2026-05-06 17:57 35.26532 -81.07297 7823 ft 234 kts 346°
2026-05-06 17:57 35.28167 -81.07452 7449 ft 237 kts 347°
2026-05-06 17:57 35.29808 -81.07595 7128 ft 238 kts 348°
2026-05-06 17:57 35.31460 -81.07722 6846 ft 236 kts 348°
2026-05-06 17:58 35.33107 -81.07855 6502 ft 237 kts 348°
2026-05-06 17:58 35.34742 -81.07998 6227 ft 235 kts 348°
2026-05-06 17:58 35.36375 -81.08141 6006 ft 230 kts 348°
2026-05-06 17:58 35.37961 -81.08282 5737 ft 229 kts 348°
2026-05-06 17:59 35.39549 -81.08431 5344 ft 233 kts 348°
2026-05-06 17:59 35.41168 -81.08579 5028 ft 234 kts 349°
2026-05-06 17:59 35.42808 -81.08729 4661 ft 236 kts 349°
2026-05-06 17:59 35.44459 -81.08881 4297 ft 238 kts 350°
2026-05-06 18:00 35.46095 -81.09028 4161 ft 232 kts 350°
2026-05-06 18:00 35.47704 -81.09176 4126 ft 233 kts 349°
2026-05-06 18:00 35.49339 -81.09343 3799 ft 237 kts 349°
2026-05-06 18:00 35.50985 -81.09531 3516 ft 237 kts 349°
2026-05-06 18:01 35.52646 -81.09746 3195 ft 238 kts 348°
2026-05-06 18:01 35.54265 -81.09934 2958 ft 236 kts 355°
2026-05-06 18:01 35.55870 -81.09544 2960 ft 241 kts 24°
2026-05-06 18:01 35.57215 -81.08255 2941 ft 243 kts 55°
2026-05-06 18:02 35.57887 -81.06382 2946 ft 242 kts 85°
2026-05-06 18:02 35.57750 -81.04385 2948 ft 234 kts 115°
2026-05-06 18:02 35.57043 -81.02607 2935 ft 229 kts 125°
2026-05-06 18:02 35.56224 -81.00938 2939 ft 229 kts 126°
2026-05-06 18:03 35.55342 -80.99312 2941 ft 225 kts 138°
2026-05-06 18:03 35.54122 -80.98178 2955 ft 215 kts 163°
2026-05-06 18:03 35.52696 -80.97781 2963 ft 208 kts 184°
2026-05-06 18:03 35.51254 -80.97746 2950 ft 209 kts 181°
2026-05-06 18:04 35.49789 -80.97617 2962 ft 209 kts 180°
2026-05-06 18:04 35.48352 -80.97490 2955 ft 207 kts 181°
2026-05-06 18:04 35.46898 -80.97369 2950 ft 208 kts 181°
2026-05-06 18:04 35.45449 -80.97262 2945 ft 208 kts 181°
2026-05-06 18:05 35.44019 -80.97142 2952 ft 207 kts 181°
2026-05-06 18:05 35.42568 -80.97013 2952 ft 203 kts 181°
2026-05-06 18:05 35.41213 -80.96885 2952 ft 191 kts 180°
2026-05-06 18:05 35.39867 -80.96778 2953 ft 197 kts 181°
2026-05-06 18:06 35.38478 -80.96662 2960 ft 197 kts 180°
2026-05-06 18:06 35.37127 -80.96538 2968 ft 198 kts 181°
2026-05-06 18:06 35.35740 -80.96430 2957 ft 196 kts 181°
2026-05-06 18:06 35.34433 -80.96313 2953 ft 182 kts 181°
2026-05-06 18:07 35.33168 -80.96207 2810 ft 180 kts 181°
2026-05-06 18:07 35.31912 -80.96100 2538 ft 180 kts 181°
2026-05-06 18:07 35.30670 -80.95990 2295 ft 180 kts 181°
2026-05-06 18:07 35.29411 -80.95879 2064 ft 178 kts 181°
2026-05-06 18:08 35.28192 -80.95780 1814 ft 174 kts 180°
2026-05-06 18:08 35.27005 -80.95682 1587 ft 170 kts 181°
2026-05-06 18:08 35.25842 -80.95576 1372 ft 164 kts 179°
2026-05-06 18:08 35.24749 -80.95485 1165 ft 148 kts 181°
2026-05-06 18:09 35.23740 -80.95390 967 ft 146 kts 173°
2026-05-06 18:09 35.22718 -80.95293 824 ft 146 kts 184°
2026-05-06 18:09 35.21748 -80.95222 722 ft 124 kts 180°
2026-05-06 18:09 35.21075 -80.95168 709 ft 68 kts 176°
2026-05-06 18:10 35.20746 -80.95119 704 ft 31 kts 159°
2026-05-06 18:10 35.20645 -80.95060 699 ft 0 kts 149°
2026-05-06 18:10 35.20602 -80.95024 697 ft 15 kts 134°
2026-05-06 18:10 35.20665 -80.94938 696 ft 22 kts 354°
2026-05-06 18:11 35.20847 -80.94958 700 ft 28 kts 354°
2026-05-06 18:11 35.21075 -80.94974 705 ft 37 kts 356°
2026-05-06 18:11 35.21364 -80.95000 711 ft 41 kts 355°
2026-05-06 18:11 35.21627 -80.95023 716 ft 34 kts 357°
2026-05-06 18:12 35.21838 -80.95028 723 ft 24 kts 29°
2026-05-06 18:12 35.21880 -80.94860 724 ft 19 kts 84°
2026-05-06 18:12 35.21882 -80.94714 724 ft 12 kts 81°
2026-05-06 18:12 35.21928 -80.94655 725 ft 8 kts 11°
2026-05-06 18:13 35.21974 -80.94655 726 ft 4 kts 355°
2026-05-06 18:13 35.21987 -80.94656 726 ft 0 kts 355°